| time (UTC) | temp F | wind direction | speed MPH | gust MPH | rain 1hr in | rain 24hr in | rain mn in | humidity % | barometer mb |
| 20260503190034 | 59 | 0 | 1.0 | 8.0 | 0.00 | 0.15 | 0.15 | 73 | 1012.0 |
| 20260503185519 | 60 | 0 | 1.0 | 8.0 | 0.00 | 0.15 | 0.15 | 71 | 1011.9 |
| 20260503185014 | 60 | 238 | 4.0 | 8.0 | 0.00 | 0.15 | 0.15 | 71 | 1011.9 |
| 20260503184528 | 60 | 241 | 1.0 | 7.0 | 0.00 | 0.15 | 0.15 | 71 | 1011.9 |
| 20260503184014 | 59 | 250 | 2.0 | 7.0 | 0.00 | 0.15 | 0.15 | 71 | 1011.8 |
| 20260503183515 | 60 | 0 | 1.0 | 7.0 | 0.00 | 0.15 | 0.15 | 71 | 1011.9 |
| 20260503183030 | 60 | 248 | 1.0 | 9.0 | 0.00 | 0.15 | 0.15 | 70 | 1011.9 |
| 20260503182512 | 60 | 240 | 2.0 | 10.0 | 0.00 | 0.15 | 0.15 | 69 | 1012.0 |
| 20260503182013 | 60 | 250 | 2.0 | 10.0 | 0.00 | 0.15 | 0.15 | 68 | 1011.9 |
| 20260503181544 | 60 | 242 | 5.0 | 10.0 | 0.00 | 0.15 | 0.15 | 67 | 1011.8 |
| 20260503181014 | 60 | 260 | 5.0 | 9.0 | 0.00 | 0.15 | 0.15 | 67 | 1011.9 |
| 20260503180514 | 61 | 250 | 3.0 | 9.0 | 0.00 | 0.15 | 0.15 | 68 | 1011.8 |
| 20260503180033 | 61 | 237 | 1.0 | 9.0 | 0.00 | 0.15 | 0.15 | 67 | 1011.9 |
| 20260503175512 | 61 | 215 | 4.0 | 12.0 | 0.00 | 0.15 | 0.15 | 64 | 1011.9 |
| 20260503175016 | 62 | 261 | 4.0 | 12.0 | 0.00 | 0.15 | 0.15 | 64 | 1011.9 |
| 20260503174539 | 62 | 203 | 5.0 | 12.0 | 0.00 | 0.15 | 0.15 | 64 | 1011.8 |
| 20260503174017 | 63 | 240 | 6.0 | 16.0 | 0.00 | 0.15 | 0.15 | 63 | 1011.8 |
| 20260503173514 | 63 | 314 | 8.0 | 16.0 | 0.00 | 0.15 | 0.15 | 62 | 1011.8 |
| 20260503173030 | 63 | 228 | 7.0 | 13.0 | 0.00 | 0.15 | 0.15 | 61 | 1011.8 |
| 20260503172515 | 63 | 198 | 2.0 | 12.0 | 0.00 | 0.15 | 0.15 | 62 | 1011.8 |
| 20260503172016 | 63 | 280 | 7.0 | 14.0 | 0.00 | 0.15 | 0.15 | 62 | 1011.8 |
| 20260503171530 | 63 | 292 | 4.0 | 14.0 | 0.00 | 0.15 | 0.15 | 63 | 1011.9 |
| 20260503171014 | 63 | 248 | 4.0 | 13.0 | 0.00 | 0.15 | 0.15 | 65 | 1011.9 |
| 20260503170515 | 63 | 252 | 5.0 | 13.0 | 0.00 | 0.15 | 0.15 | 63 | 1012.0 |
| 20260503150511 | 66 | 237 | 3.0 | 17.0 | 0.00 | 0.28 | 0.15 | 62 | 1012.0 |
| 20260503131016 | 66 | 284 | 5.0 | 14.0 | 0.00 | 0.35 | 0.15 | 69 | 1012.4 |
| 20260503130514 | 66 | 103 | 6.0 | 14.0 | 0.00 | 0.35 | 0.15 | 67 | 1012.6 |
| 20260503110523 | 64 | 250 | 3.0 | 8.0 | 0.00 | 0.36 | 0.12 | 75 | 1013.9 |
| 20260503081540 | 55 | 0 | 0.0 | 1.0 | 0.00 | 0.55 | 0.12 | 92 | 1014.8 |
| 20260503081016 | 56 | 0 | 0.0 | 3.0 | 0.00 | 0.55 | 0.12 | 93 | 1014.9 |
| 20260503080515 | 55 | 0 | 0.0 | 3.0 | 0.00 | 0.55 | 0.12 | 93 | 1015.0 |
| 20260503072516 | 54 | 0 | 0.0 | 1.0 | 0.08 | 0.59 | 0.12 | 93 | 1014.5 |
| 20260503072016 | 53 | 0 | 0.0 | 1.0 | 0.12 | 0.59 | 0.12 | 93 | 1014.3 |
| 20260503071531 | 53 | 0 | 0.0 | 1.0 | 0.11 | 0.59 | 0.11 | 93 | 1014.5 |
| 20260503071015 | 53 | 0 | 0.0 | 1.0 | 0.11 | 0.59 | 0.11 | 93 | 1014.6 |
| 20260503070518 | 53 | 0 | 0.0 | 1.0 | 0.11 | 0.59 | 0.11 | 93 | 1014.6 |
| 20260503055016 | 53 | 0 | 0.0 | 1.0 | 0.00 | 0.55 | 0.00 | 93 | 1014.0 |
| 20260503054544 | 52 | 0 | 0.0 | 0.0 | 0.00 | 0.55 | 0.00 | 93 | 1014.0 |
| 20260503054017 | 52 | 0 | 0.0 | 1.0 | 0.00 | 0.55 | 0.00 | 93 | 1014.0 |
| 20260503053515 | 52 | 0 | 0.0 | 1.0 | 0.00 | 0.55 | 0.00 | 93 | 1014.0 |
| 20260503053032 | 52 | 0 | 0.0 | 1.0 | 0.00 | 0.55 | 0.00 | 93 | 1014.1 |
| 20260503052516 | 52 | 0 | 0.0 | 1.0 | 0.00 | 0.55 | 0.00 | 93 | 1014.2 |
| 20260503052016 | 52 | 0 | 0.0 | 3.0 | 0.00 | 0.55 | 0.00 | 93 | 1014.2 |
| 20260503051531 | 52 | 0 | 0.0 | 3.0 | 0.00 | 0.55 | 0.00 | 92 | 1014.1 |
| 20260503051016 | 52 | 0 | 1.0 | 3.0 | 0.00 | 0.55 | 0.00 | 92 | 1014.2 |
| 20260503050516 | 52 | 136 | 0.0 | 2.0 | 0.00 | 0.55 | 0.00 | 92 | 1014.2 |
| 20260503050035 | 52 | 0 | 0.0 | 0.0 | 0.00 | 0.55 | 0.00 | 92 | 1014.2 |
| 20260503045516 | 52 | 0 | 0.0 | 0.0 | 0.00 | 0.55 | 0.00 | 92 | 1014.3 |
| 20260503045017 | 52 | 0 | 0.0 | 0.0 | 0.00 | 0.55 | 0.00 | 92 | 1014.2 |
| 20260503044538 | 52 | 0 | 0.0 | 2.0 | 0.00 | 0.55 | 0.00 | 92 | 1014.2 |
| 20260503044013 | 52 | 0 | 0.0 | 2.0 | 0.00 | 0.55 | 0.00 | 92 | 1014.3 |
| 20260503043516 | 52 | 0 | 0.0 | 2.0 | 0.00 | 0.55 | 0.00 | 92 | 1014.3 |
| 20260503043042 | 52 | 0 | 0.0 | 3.0 | 0.00 | 0.55 | 0.00 | 92 | 1014.3 |
| 20260503042514 | 52 | 0 | 0.0 | 4.0 | 0.00 | 0.55 | 0.00 | 92 | 1014.2 |
| 20260503042016 | 52 | 0 | 0.0 | 7.0 | 0.00 | 0.55 | 0.00 | 92 | 1014.2 |
| 20260503041530 | 52 | 136 | 1.0 | 7.0 | 0.00 | 0.55 | 0.00 | 92 | 1014.3 |
| 20260503041017 | 52 | 136 | 3.0 | 7.0 | 0.00 | 0.55 | 0.00 | 92 | 1014.3 |
| 20260503040516 | 52 | 141 | 1.0 | 5.0 | 0.00 | 0.55 | 0.00 | 92 | 1014.3 |
| 20260503040032 | 53 | 144 | 1.0 | 4.0 | 0.00 | 0.55 | 0.00 | 92 | 1014.4 |
| 20260503035516 | 53 | 146 | 2.0 | 4.0 | 0.00 | 0.55 | 0.00 | 92 | 1014.3 |
| 20260503035015 | 53 | 144 | 2.0 | 4.0 | 0.00 | 0.55 | 0.00 | 92 | 1014.3 |
| 20260503034531 | 53 | 142 | 1.0 | 4.0 | 0.00 | 0.55 | 0.00 | 92 | 1014.4 |
| 20260503034016 | 53 | 145 | 0.0 | 3.0 | 0.00 | 0.55 | 0.00 | 92 | 1014.4 |
| 20260503033516 | 53 | 0 | 0.0 | 3.0 | 0.00 | 0.55 | 0.00 | 92 | 1014.6 |
| 20260503033031 | 53 | 145 | 0.0 | 3.0 | 0.00 | 0.55 | 0.00 | 92 | 1014.7 |
| 20260503032515 | 53 | 145 | 1.0 | 3.0 | 0.00 | 0.55 | 0.00 | 92 | 1014.7 |
| 20260503032014 | 53 | 0 | 1.0 | 3.0 | 0.00 | 0.55 | 0.00 | 92 | 1014.8 |
| 20260503031531 | 53 | 146 | 0.0 | 3.0 | 0.00 | 0.55 | 0.00 | 92 | 1014.9 |
| 20260503031016 | 53 | 146 | 0.0 | 3.0 | 0.00 | 0.55 | 0.00 | 92 | 1014.9 |
| 20260503030513 | 53 | 0 | 0.0 | 3.0 | 0.00 | 0.55 | 0.00 | 92 | 1015.0 |
| 20260503030036 | 53 | 146 | 0.0 | 3.0 | 0.00 | 0.55 | 0.00 | 92 | 1014.9 |
| 20260503025515 | 53 | 0 | 0.0 | 3.0 | 0.00 | 0.55 | 0.00 | 92 | 1014.8 |
| 20260503025013 | 53 | 0 | 0.0 | 3.0 | 0.00 | 0.55 | 0.00 | 92 | 1014.9 |
| 20260503024533 | 53 | 0 | 0.0 | 2.0 | 0.00 | 0.55 | 0.00 | 92 | 1015.0 |
| 20260503024016 | 53 | 146 | 0.0 | 1.0 | 0.00 | 0.55 | 0.00 | 92 | 1015.0 |
| 20260503023517 | 53 | 0 | 0.0 | 1.0 | 0.00 | 0.55 | 0.00 | 92 | 1015.0 |
| 20260503023035 | 53 | 0 | 0.0 | 4.0 | 0.00 | 0.55 | 0.00 | 92 | 1015.1 |
| 20260503022515 | 53 | 0 | 1.0 | 4.0 | 0.00 | 0.55 | 0.00 | 92 | 1015.0 |
| 20260503022013 | 53 | 0 | 1.0 | 3.0 | 0.00 | 0.55 | 0.00 | 92 | 1015.1 |
| 20260503021529 | 53 | 0 | 0.0 | 3.0 | 0.00 | 0.55 | 0.00 | 92 | 1015.1 |
| 20260503021014 | 53 | 0 | 0.0 | 3.0 | 0.00 | 0.55 | 0.00 | 92 | 1015.0 |
| 20260503020516 | 53 | 0 | 0.0 | 3.0 | 0.00 | 0.55 | 0.00 | 92 | 1015.1 |
| 20260503020032 | 53 | 151 | 0.0 | 3.0 | 0.00 | 0.55 | 0.00 | 92 | 1015.0 |
| 20260503015521 | 53 | 0 | 0.0 | 0.0 | 0.00 | 0.55 | 0.00 | 92 | 1015.0 |
| 20260503015015 | 54 | 0 | 0.0 | 0.0 | 0.00 | 0.55 | 0.00 | 92 | 1015.0 |
| 20260503014530 | 54 | 0 | 0.0 | 0.0 | 0.00 | 0.55 | 0.00 | 92 | 1015.0 |
| 20260503014017 | 54 | 0 | 0.0 | 0.0 | 0.00 | 0.55 | 0.00 | 92 | 1015.1 |
| 20260503013516 | 54 | 0 | 0.0 | 0.0 | 0.00 | 0.55 | 0.00 | 92 | 1015.1 |
| 20260503013039 | 54 | 0 | 0.0 | 0.0 | 0.00 | 0.55 | 0.00 | 92 | 1015.1 |
| 20260503012515 | 54 | 0 | 0.0 | 0.0 | 0.00 | 0.55 | 0.00 | 92 | 1015.2 |
| 20260503012016 | 54 | 0 | 0.0 | 0.0 | 0.00 | 0.55 | 0.00 | 92 | 1015.1 |
| 20260503011531 | 54 | 0 | 0.0 | 0.0 | 0.00 | 0.55 | 0.00 | 92 | 1015.2 |
| 20260503011015 | 54 | 0 | 0.0 | 0.0 | 0.00 | 0.55 | 0.00 | 92 | 1015.4 |
| 20260503010516 | 54 | 0 | 0.0 | 0.0 | 0.00 | 0.55 | 0.00 | 92 | 1015.4 |
| 20260503010031 | 54 | 0 | 0.0 | 3.0 | 0.00 | 0.55 | 0.00 | 92 | 1015.5 |
| 20260503005513 | 54 | 0 | 0.0 | 3.0 | 0.00 | 0.55 | 0.00 | 92 | 1015.6 |
| 20260503005015 | 54 | 0 | 0.0 | 0.0 | 0.00 | 0.55 | 0.00 | 92 | 1015.5 |
| 20260503004535 | 54 | 0 | 0.0 | 1.0 | 0.00 | 0.55 | 0.00 | 93 | 1015.5 |
| 20260503004016 | 54 | 0 | 0.0 | 1.0 | 0.00 | 0.55 | 0.00 | 93 | 1015.6 |
| 20260503003516 | 54 | 0 | 0.0 | 0.0 | 0.00 | 0.55 | 0.00 | 93 | 1015.6 |
| 20260503003042 | 54 | 0 | 0.0 | 0.0 | 0.00 | 0.55 | 0.00 | 93 | 1015.6 |
| 20260503002516 | 54 | 0 | 0.0 | 0.0 | 0.00 | 0.55 | 0.00 | 93 | 1015.7 |
| 20260503002016 | 54 | 0 | 0.0 | 0.0 | 0.00 | 0.55 | 0.00 | 93 | 1015.7 |
| 20260503001540 | 54 | 0 | 0.0 | 0.0 | 0.00 | 0.55 | 0.00 | 93 | 1015.7 |
| 20260503001016 | 54 | 0 | 0.0 | 0.0 | 0.00 | 0.55 | 0.00 | 93 | 1015.7 |
| 20260503000518 | 54 | 0 | 0.0 | 0.0 | 0.00 | 0.55 | 0.00 | 93 | 1015.7 |
| 20260503000034 | 54 | 0 | 0.0 | 0.0 | 0.00 | 0.55 | 0.00 | 93 | 1015.7 |
| 20260502235515 | 54 | 0 | 0.0 | 1.0 | 0.00 | 0.55 | 0.00 | 93 | 1015.8 |
| 20260502235015 | 54 | 0 | 0.0 | 1.0 | 0.00 | 0.55 | 0.00 | 93 | 1015.9 |
| 20260502234544 | 54 | 0 | 0.0 | 1.0 | 0.00 | 0.55 | 0.00 | 93 | 1015.9 |
| 20260502234016 | 54 | 0 | 0.0 | 3.0 | 0.00 | 0.55 | 0.00 | 93 | 1016.0 |
| 20260502233513 | 54 | 0 | 0.0 | 3.0 | 0.00 | 0.55 | 0.00 | 93 | 1016.0 |
| 20260502233039 | 55 | 0 | 0.0 | 3.0 | 0.00 | 0.55 | 0.00 | 93 | 1016.2 |
| 20260502232517 | 55 | 0 | 0.0 | 3.0 | 0.00 | 0.55 | 0.00 | 93 | 1016.1 |
| 20260502232014 | 55 | 0 | 0.0 | 3.0 | 0.00 | 0.55 | 0.00 | 93 | 1016.0 |
| 20260502231529 | 55 | 151 | 1.0 | 3.0 | 0.00 | 0.55 | 0.00 | 93 | 1016.1 |
| 20260502231015 | 55 | 151 | 1.0 | 5.0 | 0.00 | 0.55 | 0.00 | 93 | 1016.1 |
| 20260502230516 | 55 | 0 | 0.0 | 6.0 | 0.00 | 0.55 | 0.00 | 93 | 1016.1 |
| 20260502230034 | 55 | 152 | 2.0 | 6.0 | 0.00 | 0.55 | 0.00 | 93 | 1016.2 |
| 20260502225511 | 55 | 190 | 0.0 | 0.0 | 0.00 | 0.55 | 0.00 | 93 | 1016.2 |
| 20260502225014 | 55 | 0 | 0.0 | 0.0 | 0.00 | 0.55 | 0.00 | 93 | 1016.1 |
| 20260502224540 | 55 | 0 | 0.0 | 0.0 | 0.00 | 0.55 | 0.00 | 93 | 1016.1 |
| 20260502224014 | 55 | 0 | 0.0 | 0.0 | 0.00 | 0.55 | 0.00 | 93 | 1016.1 |
| 20260502223513 | 55 | 0 | 0.0 | 0.0 | 0.00 | 0.55 | 0.00 | 93 | 1016.2 |
| 20260502223039 | 55 | 0 | 0.0 | 0.0 | 0.00 | 0.55 | 0.00 | 93 | 1016.4 |
| 20260502222514 | 55 | 0 | 0.0 | 0.0 | 0.00 | 0.55 | 0.00 | 93 | 1016.2 |
| 20260502222015 | 55 | 0 | 0.0 | 0.0 | 0.00 | 0.55 | 0.00 | 93 | 1016.2 |
| 20260502221529 | 55 | 0 | 0.0 | 0.0 | 0.00 | 0.55 | 0.00 | 93 | 1016.3 |
| 20260502221012 | 55 | 0 | 0.0 | 0.0 | 0.00 | 0.55 | 0.00 | 92 | 1016.4 |
| 20260502220512 | 55 | 0 | 0.0 | 0.0 | 0.00 | 0.55 | 0.00 | 92 | 1016.4 |
| 20260502220030 | 54 | 0 | 0.0 | 0.0 | 0.00 | 0.55 | 0.00 | 92 | 1016.4 |
| 20260502215514 | 54 | 0 | 0.0 | 0.0 | 0.00 | 0.55 | 0.55 | 92 | 1016.5 |
| 20260502215016 | 54 | 0 | 0.0 | 0.0 | 0.00 | 0.55 | 0.55 | 93 | 1016.6 |
| 20260502214530 | 54 | 0 | 0.0 | 0.0 | 0.00 | 0.55 | 0.55 | 93 | 1016.6 |
| 20260502214019 | 54 | 0 | 0.0 | 0.0 | 0.00 | 0.55 | 0.55 | 92 | 1016.4 |
| 20260502213514 | 54 | 0 | 0.0 | 0.0 | 0.00 | 0.55 | 0.55 | 92 | 1016.4 |
| 20260502213032 | 54 | 0 | 0.0 | 1.0 | 0.00 | 0.55 | 0.55 | 92 | 1016.6 |
| 20260502212514 | 54 | 0 | 0.0 | 1.0 | 0.00 | 0.55 | 0.55 | 92 | 1016.5 |
| 20260502212014 | 54 | 0 | 0.0 | 2.0 | 0.00 | 0.55 | 0.55 | 92 | 1016.4 |
| 20260502211534 | 54 | 0 | 0.0 | 2.0 | 0.00 | 0.55 | 0.55 | 92 | 1016.3 |
| 20260502211015 | 54 | 190 | 0.0 | 2.0 | 0.00 | 0.55 | 0.55 | 92 | 1016.3 |
| 20260502210513 | 54 | 0 | 0.0 | 0.0 | 0.00 | 0.55 | 0.55 | 92 | 1016.3 |
| 20260502210037 | 54 | 0 | 0.0 | 1.0 | 0.00 | 0.55 | 0.55 | 92 | 1016.4 |
| 20260502205515 | 54 | 0 | 0.0 | 1.0 | 0.00 | 0.55 | 0.55 | 92 | 1016.2 |
| 20260502205014 | 54 | 0 | 0.0 | 1.0 | 0.00 | 0.55 | 0.55 | 92 | 1016.1 |
| 20260502204531 | 54 | 0 | 0.0 | 0.0 | 0.00 | 0.55 | 0.55 | 92 | 1016.1 |
| 20260502204013 | 54 | 0 | 0.0 | 0.0 | 0.00 | 0.55 | 0.55 | 92 | 1016.1 |
| 20260502203518 | 54 | 0 | 0.0 | 0.0 | 0.00 | 0.55 | 0.55 | 92 | 1015.9 |
| 20260502203033 | 55 | 0 | 0.0 | 0.0 | 0.00 | 0.55 | 0.55 | 92 | 1015.9 |
| 20260502202516 | 55 | 0 | 0.0 | 0.0 | 0.00 | 0.55 | 0.55 | 92 | 1015.8 |
| 20260502202015 | 55 | 0 | 0.0 | 0.0 | 0.00 | 0.55 | 0.55 | 92 | 1015.8 |
| 20260502201530 | 55 | 0 | 0.0 | 0.0 | 0.00 | 0.55 | 0.55 | 91 | 1015.8 |
| 20260502201016 | 55 | 0 | 0.0 | 0.0 | 0.00 | 0.55 | 0.55 | 91 | 1015.8 |
| 20260502200519 | 55 | 0 | 0.0 | 0.0 | 0.00 | 0.55 | 0.55 | 91 | 1015.6 |
| 20260502200030 | 55 | 0 | 0.0 | 2.0 | 0.00 | 0.55 | 0.55 | 91 | 1015.7 |
| 20260502195516 | 55 | 0 | 0.0 | 2.0 | 0.00 | 0.55 | 0.55 | 91 | 1015.5 |
| 20260502195015 | 55 | 0 | 0.0 | 1.0 | 0.00 | 0.55 | 0.55 | 91 | 1015.5 |
| 20260502194533 | 55 | 0 | 0.0 | 1.0 | 0.00 | 0.55 | 0.55 | 91 | 1015.5 |
| 20260502194013 | 55 | 0 | 0.0 | 1.0 | 0.00 | 0.55 | 0.55 | 90 | 1015.4 |
| 20260502193516 | 55 | 0 | 0.0 | 1.0 | 0.00 | 0.55 | 0.55 | 90 | 1015.5 |
| 20260502193033 | 55 | 0 | 0.0 | 1.0 | 0.00 | 0.55 | 0.55 | 90 | 1015.6 |
| 20260502192514 | 56 | 0 | 0.0 | 1.0 | 0.00 | 0.55 | 0.55 | 90 | 1015.5 |
| 20260502192016 | 56 | 0 | 0.0 | 1.0 | 0.00 | 0.55 | 0.55 | 90 | 1015.5 |
| 20260502191530 | 56 | 0 | 0.0 | 2.0 | 0.00 | 0.55 | 0.55 | 90 | 1015.5 |
| 20260502191014 | 56 | 0 | 0.0 | 2.0 | 0.00 | 0.55 | 0.55 | 90 | 1015.3 |
| 20260502190515 | 56 | 0 | 0.0 | 3.0 | 0.00 | 0.55 | 0.55 | 90 | 1015.3 |